This demonstration page uses our WeatherBlox Daily Observations layout. Learn more.

Left ArrowRight Arrow

39.92423, -83.80882

Hourly Observations for October 3, 2020

Temp ( °F °C ) Dew Point ( °F °C ) Humidity (%) Winds ( mph kmh ) Pressure ( in mb ) Visibility ( mi km ) Precip ( " mm )
12:56 am 00:56 Clear 44 6.7 41 5 89 89 N 8 13 30.21 1023 10 16.0934 0 0
1:56 am 01:56 Clear 43 6.1 41 5 93 93 Calm 30.21 1023 10 16.0934 0 0
2:56 am 02:56 Cloudy 44 6.7 40 4.4 85 85 NNE 3 6 30.21 1023 10 16.0934 0 0
3:56 am 03:56 Cloudy 43 6.1 41 5 93 93 NNE 5 7 30.2 1023 10 16.0934 0 0
4:56 am 04:56 Cloudy 43 6.1 42 5.6 97 97 ENE 5 7 30.19 1023 10 16.0934 0 0
5:56 am 05:56 Cloudy 43 6.1 42 5.6 97 97 NNW 3 6 30.22 1023 10 16.0934 0.01 0.254
6:56 am 06:56 Cloudy 43 6.1 42 5.6 97 97 Calm 30.23 1024 10 16.0934 0 0
7:56 am 07:56 Cloudy 43 6.1 43 6.1 100 100 Calm 30.24 1024 10 16.0934 0 0
8:56 am 08:56 Cloudy 45 7.2 43 6.1 93 93 Calm 30.25 1025 10 16.0934 0 0
9:56 am 09:56 Cloudy 47 8.3 43 6.1 86 86 E 5 7 30.26 1025 10 16.0934 0 0
10:56 am 10:56 Cloudy 51 10.6 43 6.1 74 74 ESE 6 9 30.25 1025 10 16.0934 0 0
11:56 am 11:56 Cloudy 56 13.3 45 7.2 67 67 Calm 30.24 1024 10 16.0934 0 0
12:56 pm 12:56 Partly Cloudy 61 16.1 44 6.7 54 54 VRB 3 6 30.22 1023 10 16.0934 0 0
1:56 pm 13:56 Mostly Cloudy 62 16.7 40 4.4 44 44 SW 10 17 30.21 1023 10 16.0934 0 0
2:56 pm 14:56 Cloudy 61 16.1 40 4.4 46 46 WSW 7 11 30.19 1022 10 16.0934 0 0
3:56 pm 15:56 Cloudy 62 16.7 40 4.4 44 44 SW 8 13 30.18 1022 10 16.0934 0 0
4:56 pm 16:56 Cloudy 62 16.7 39 3.9 43 43 S 6 9 30.16 1022 10 16.0934 0 0
5:56 pm 17:56 Cloudy 61 16.1 40 4.4 46 46 SW 6 9 30.16 1022 10 16.0934 0 0
6:56 pm 18:56 Cloudy 58 14.4 42 5.6 56 56 Calm 30.16 1022 10 16.0934 0 0
7:56 pm 19:56 Cloudy 56 13.3 44 6.7 65 65 SSE 3 6 30.17 1022 10 16.0934 0.01 0.254
8:56 pm 20:56 Cloudy 55 12.8 44 6.7 67 67 SSE 5 7 30.18 1022 10 16.0934 0 0
9:56 pm 21:56 Cloudy with Light Rain 54 12.2 45 7.2 72 72 S 3 6 30.18 1022 10 16.0934 0.001 0.001
10:56 pm 22:56 Cloudy with Light Rain 52 11.1 48 8.9 86 86 Calm 30.19 1023 10 16.0934 0.001 0.001
11:56 pm 23:56 Cloudy 51 10.6 50 10 96 96 Calm 30.18 1022 10 16.0934 0.001 0.001

Powered by AerisWeather